sat.trackr.live / text

‹ back to catalog

STARLINK-34775

NORAD 64934 · 2025-158C

PAYLOAD ACTIVE UNKNOWN

§ Identity

Operator
Country
US
Launch date
2025-07-27
Launch site
AFWTR
Launch vehicle
Mass (kg)
RCS (m²)

Purposes: comms

External: N2YO · Heavens-Above · Gunter

§ Orbital elements

Epoch: 2026-09-20T13:01:02.667936Z

Period
93.90 min
Inclination
97.2855°
Eccentricity
0.0001970
Mean motion
15.33471785 rev/d
Perigee alt
464.1 km
Apogee alt
466.8 km
Semi-major
6,843.6 km
B*
3.2093e-4
RAAN
121.8627°
Arg perigee
88.3641°
Mean anomaly
271.7827°
Rev number
6,471

§ Raw data

STARLINK-347751 64934U 25158C   26263.54239199  .00010309  00000+0  32093-3 0  99902 64934  97.2855 121.8627 0001970  88.3641 271.7827 15.33471785 64714

JSON: /api/v1/satellites/64934 · /tle

For live sub-satellite position, see the globe view (requires WebGL).

§ Visibility from observer

Set your observer location to see the next 7 days of passes ≥ 10°. The values pass through the URL so the page stays shareable.

No JS? Fill the form by hand. The geolocation button needs JavaScript.